Dallas Redbird, TX

12:46 AM CDT on August 19, 2017 (GMT -0500)
Redbird

Weather History for KRBD - March, 2013

Change the Weather History Date:

Sunday, March 10, 2013

  Actual Average Record
Temperature  
Mean Temperature 50 °F -  
Max Temperature 62 °F 61 °F 82 °F (2006)
Min Temperature 39 °F 43 °F 25 °F (1998)
Degree Days  
Heating Degree Days 14    
Moisture  
Dew Point 40 °F    
Average Humidity 64    
Maximum Humidity 94    
Minimum Humidity 43    
Precipitation  
Precipitation 0.23 in - - ()
Sea Level Pressure  
Sea Level Pressure 29.89 in    
Wind  
Wind Speed 12 mph (NW)    
Max Wind Speed 29 mph    
Max Gust Speed 43 mph    
Visibility 9 miles    
Events Rain    
Averages and records for this station are not official NWS values.
T = Trace of Precipitation, MM = Missing Value Source: NWS Daily Summary

Daily Weather History Graph

Daily Weather History Graph

Search for Another Location

Airport or City:

Trip Planner

Search our weather history database for the weather conditions in past years. The results will help you decide how hot, cold, wet, or windy it might be!

Date:

Astronomy

Mar. 10, 2013 Rise Set
Actual Time 7:43 AM CDT 7:31 PM CDT
Civil Twilight 7:19 AM CDT 7:56 PM CDT
Nautical Twilight 6:50 AM CDT 8:25 PM CDT
Astronomical Twilight 6:22 AM CDT 8:53 PM CDT
Moon 6:42 AM CDT (3/10) 6:41 PM CDT (3/10)
Length of Visible Light 12h 37m
Length of Day
11h 48m
Waning Crescent, 2% of the Moon is Illuminated
Mar 10
Waning Crescent
Mar 11
New
Mar 19
First Quarter
Mar 27
Full
Apr 2
Last Quarter

Hourly Weather History & Observations

Time (CDT) Temp. Windchill Dew Point Humidity Pressure Visibility Wind Dir Wind Speed Gust Speed Precip Events Conditions
12:06 AM 62.6 °F - 60.8 °F 94% 29.75 in 2.5 mi SW 11.5 mph 19.6 mph 0.05 in Rain Rain
12:40 AM 62.6 °F - 57.2 °F 82% 29.74 in 6.0 mi Variable 3.5 mph - 0.20 in Rain Light Rain
12:48 AM 62.6 °F - 57.2 °F 82% 29.74 in 10.0 mi Variable 3.5 mph - 0.20 in Rain Light Rain
12:53 AM 62.1 °F - 57.0 °F 84% 29.73 in 10.0 mi SW 3.5 mph - 0.20 in Rain Light Rain
1:53 AM 61.0 °F - 57.9 °F 90% 29.72 in 10.0 mi West 5.8 mph - 0.02 in   Overcast
3:33 AM 60.8 °F - 57.2 °F 88% 29.77 in 8.0 mi West 8.1 mph - 0.00 in Rain Light Rain
3:53 AM 60.1 °F - 57.9 °F 93% 29.75 in 8.0 mi WNW 8.1 mph - 0.00 in Rain Light Rain
4:53 AM 57.9 °F - 50.0 °F 75% 29.77 in 10.0 mi NW 12.7 mph - 0.00 in Rain Light Rain
5:53 AM 55.0 °F - 44.1 °F 67% 29.76 in 10.0 mi West 8.1 mph - 0.00 in Rain Light Rain
7:53 AM 55.0 °F - 44.1 °F 67% 29.80 in 10.0 mi WNW 21.9 mph 32.2 mph 0.00 in Rain Light Rain
8:05 AM 53.6 °F - 44.6 °F 72% 29.81 in 10.0 mi NW 15.0 mph 26.5 mph 0.01 in Rain Light Rain
8:53 AM 51.1 °F - 37.0 °F 59% 29.84 in 10.0 mi NW 13.8 mph 20.7 mph 0.01 in   Overcast
9:53 AM 50.0 °F - 34.0 °F 54% 29.88 in 10.0 mi NW 23.0 mph 28.8 mph 0.00 in   Partly Cloudy
10:53 AM 51.1 °F - 32.0 °F 48% 29.91 in 10.0 mi WNW 25.3 mph 42.6 mph N/A   Clear
11:53 AM 53.1 °F - 33.1 °F 47% 29.93 in 10.0 mi NW 28.8 mph 34.5 mph N/A   Scattered Clouds
12:53 PM 53.1 °F - 34.0 °F 48% 29.95 in 10.0 mi NW 25.3 mph 32.2 mph N/A   Overcast
1:53 PM 51.1 °F - 33.1 °F 50% 29.95 in 10.0 mi WNW 23.0 mph 33.4 mph N/A   Overcast
2:53 PM 54.0 °F - 33.1 °F 45% 29.94 in 10.0 mi NW 21.9 mph 33.4 mph N/A   Overcast
3:53 PM 51.1 °F - 30.9 °F 46% 29.96 in 10.0 mi NNW 23.0 mph 32.2 mph N/A   Overcast
4:53 PM 51.1 °F - 30.9 °F 46% 29.96 in 10.0 mi NW 20.7 mph 25.3 mph N/A   Overcast
5:53 PM 52.0 °F - 30.0 °F 43% 29.97 in 10.0 mi NW 19.6 mph 26.5 mph N/A   Mostly Cloudy
6:53 PM 50.0 °F - 28.9 °F 44% 30.00 in 10.0 mi NW 16.1 mph 26.5 mph N/A   Mostly Cloudy
7:53 PM 46.0 °F 41.4 °F 28.0 °F 50% 30.04 in 10.0 mi NNW 9.2 mph - N/A   Clear
8:53 PM 43.0 °F 40.3 °F 28.9 °F 58% 30.06 in 10.0 mi NW 4.6 mph - N/A   Clear
9:53 PM 42.1 °F 39.2 °F 30.0 °F 62% 30.09 in 10.0 mi NW 4.6 mph - N/A   Clear
10:53 PM 41.0 °F 38.0 °F 28.9 °F 62% 30.09 in 10.0 mi NW 4.6 mph - N/A   Clear
11:53 PM 39.0 °F 34.8 °F 28.9 °F 67% 30.05 in 10.0 mi NNW 5.8 mph - N/A   Clear
12:53 AM 39.0 °F 35.7 °F 28.9 °F 67% 30.06 in 10.0 mi WNW 4.6 mph - N/A   Clear